Simultaneous Nadir Overpasses (SNOs) Predictions

Prediction of SNOs between AQUA and NOAA-19 Satellite Orbit:

Table of predicted SNOs for the next 14.0 days since TLE Epoch: 6/5/2021
Index Date (AQUA) Time (AQUA) Lat,Lon (AQUA) SZA (AQUA ) Date (NOAA-19) Time (NOAA-19) Lat,Lon (NOAA-19) SZA (NOAA-19 ) Distance(km) Time Diff (sec)
1 06/07/2021 04:37:19 -78.81, -91.98 123.10 06/07/2021 04:36:49 -78.82, -91.88 123.08 2.52 30
2 06/07/2021 05:26:46 78.82, 75.58 56.92 06/07/2021 05:27:53 78.84, 75.50 56.93 2.81 67
3 06/09/2021 10:11:03 78.80, 4.65 56.71 06/09/2021 10:10:04 78.79, 4.63 56.72 1.54 59
4 06/09/2021 11:00:30 -78.82, 172.16 123.27 06/09/2021 11:00:59 -78.82, 172.17 123.28 0.19 29
5 06/11/2021 16:34:14 78.82, -91.24 56.58 06/11/2021 16:34:13 78.81, -91.18 56.56 1.76 1
6 06/13/2021 22:07:57 -78.78, 5.54 123.60 06/13/2021 22:07:20 -78.77, 5.39 123.58 3.28 37
7 06/13/2021 22:57:25 78.84, 172.85 56.48 06/13/2021 22:58:22 78.82, 172.99 56.44 3.34 57
8 06/16/2021 03:41:41 78.78, 102.10 56.33 06/16/2021 03:40:33 78.76, 102.05 56.33 2.88 68
9 06/16/2021 04:31:08 -78.80, -90.38 123.65 06/16/2021 04:31:29 -78.80, -90.35 123.66 0.70 21
10 06/18/2021 10:04:51 78.77, 6.39 56.26 06/18/2021 10:04:41 78.80, 6.42 56.29 3.93 10



Historial Predications of SNOs between AQUA and NOAA-19
